Time,TemperatureF,DewpointF,PressureIn,WindDirection,WindDirectionDegrees,WindSpeedMPH,WindSpeedGustMPH,Humidity,HourlyPrecipIn,Conditions,Clouds,dailyrainin,SoftwareType,DateUTC
2013-01-12 00:20:00,63.3,63.0,30.03,NNE,30,0.0,1.0,97,0.04,,,0.58,weatherlink.com 1.10,2013-01-12 05:20:00,
2013-01-12 00:35:00,63.3,63.0,30.03,NNE,30,0.0,0.0,97,0.02,,,0.58,weatherlink.com 1.10,2013-01-12 05:35:00,
2013-01-12 00:50:00,63.4,63.0,30.02,NNE,30,0.0,1.0,97,0.01,,,0.58,weatherlink.com 1.10,2013-01-12 05:50:00,
2013-01-12 01:20:00,63.6,63.0,30.02,NNE,30,0.0,1.0,97,0.00,,,0.58,weatherlink.com 1.10,2013-01-12 06:20:00,
2013-01-12 01:35:00,63.6,63.0,30.02,NNE,30,0.0,0.0,97,0.00,,,0.58,weatherlink.com 1.10,2013-01-12 06:35:00,
2013-01-12 01:50:00,63.7,63.0,30.02,NNE,32,0.0,1.0,97,0.00,,,0.58,weatherlink.com 1.10,2013-01-12 06:50:00,
2013-01-12 02:05:00,64.0,63.0,30.03,ESE,113,0.0,3.0,97,0.00,,,0.58,weatherlink.com 1.10,2013-01-12 07:05:00,
2013-01-12 02:20:00,64.1,63.0,30.03,ESE,113,0.0,0.0,97,0.00,,,0.58,weatherlink.com 1.10,2013-01-12 07:20:00,
2013-01-12 02:35:00,64.3,64.0,30.03,ESE,114,0.0,3.0,97,0.00,,,0.58,weatherlink.com 1.10,2013-01-12 07:35:00,
2013-01-12 02:50:00,64.3,64.0,30.03,ESE,115,0.0,0.0,97,0.00,,,0.58,weatherlink.com 1.10,2013-01-12 07:50:00,
2013-01-12 03:05:00,64.3,63.0,30.04,ESE,115,0.0,1.0,96,0.00,,,0.58,weatherlink.com 1.10,2013-01-12 08:05:00,
2013-01-12 03:20:00,64.6,64.0,30.04,SE,141,0.0,3.0,96,0.00,,,0.58,weatherlink.com 1.10,2013-01-12 08:20:00,
2013-01-12 03:50:00,64.7,63.0,30.02,ESE,122,0.0,3.0,95,0.00,,,0.58,weatherlink.com 1.10,2013-01-12 08:50:00,
2013-01-12 04:05:00,64.6,63.0,30.02,SE,134,0.0,2.0,95,0.00,,,0.58,weatherlink.com 1.10,2013-01-12 09:05:00,
2013-01-12 04:20:00,64.3,63.0,30.02,SE,134,0.0,1.0,96,0.01,,,0.59,weatherlink.com 1.10,2013-01-12 09:20:00,
2013-01-12 04:35:00,64.0,63.0,30.02,SE,135,0.0,1.0,96,0.01,,,0.59,weatherlink.com 1.10,2013-01-12 09:35:00,
2013-01-12 04:50:00,63.9,63.0,30.01,SE,135,0.0,0.0,97,0.01,,,0.00,weatherlink.com 1.10,2013-01-12 09:50:00,
2013-01-12 05:05:00,64.1,63.0,30.01,SE,136,1.0,3.0,97,0.01,,,0.00,weatherlink.com 1.10,2013-01-12 10:05:00,
2013-01-12 05:20:00,64.1,63.0,30.00,SE,136,0.0,0.0,96,0.00,,,0.00,weatherlink.com 1.10,2013-01-12 10:20:00,
2013-01-12 05:35:00,63.9,63.0,30.01,SE,136,0.0,0.0,96,0.00,,,0.00,weatherlink.com 1.10,2013-01-12 10:35:00,
2013-01-12 05:50:00,63.8,63.0,30.01,SE,136,0.0,0.0,97,0.00,,,0.00,weatherlink.com 1.10,2013-01-12 10:50:00,
2013-01-12 06:05:00,63.8,63.0,30.02,SE,136,0.0,0.0,97,0.00,,,0.00,weatherlink.com 1.10,2013-01-12 11:05:00,
2013-01-12 06:20:00,63.9,63.0,30.02,SE,136,0.0,1.0,97,0.00,,,0.00,weatherlink.com 1.10,2013-01-12 11:20:00,
2013-01-12 06:35:00,64.0,63.0,30.03,SE,136,0.0,1.0,97,0.00,,,0.00,weatherlink.com 1.10,2013-01-12 11:35:00,
2013-01-12 06:50:00,64.1,63.0,30.01,SE,145,0.0,4.0,97,0.04,,,0.04,weatherlink.com 1.10,2013-01-12 11:50:00,
2013-01-12 07:05:00,63.9,63.0,30.02,SE,146,0.0,0.0,97,0.04,,,0.04,weatherlink.com 1.10,2013-01-12 12:05:00,
2013-01-12 07:20:00,63.6,63.0,30.03,SE,145,0.0,0.0,97,0.04,,,0.04,weatherlink.com 1.10,2013-01-12 12:20:00,
2013-01-12 07:35:00,63.5,63.0,30.04,SE,146,0.0,0.0,97,0.04,,,0.04,weatherlink.com 1.10,2013-01-12 12:35:00,
2013-01-12 07:50:00,63.3,63.0,30.03,SE,146,0.0,0.0,97,0.00,,,0.04,weatherlink.com 1.10,2013-01-12 12:50:00,
2013-01-12 08:05:00,63.0,62.0,30.03,SE,145,0.0,0.0,97,0.00,,,0.04,weatherlink.com 1.10,2013-01-12 13:05:00,
2013-01-12 08:20:00,62.9,62.0,30.05,SE,146,0.0,0.0,97,0.00,,,0.04,weatherlink.com 1.10,2013-01-12 13:20:00,
2013-01-12 08:35:00,63.3,63.0,30.05,SE,146,0.0,0.0,97,0.00,,,0.04,weatherlink.com 1.10,2013-01-12 13:35:00,
2013-01-12 08:51:00,63.4,63.0,30.05,SE,146,0.0,0.0,97,0.00,,,0.04,weatherlink.com 1.10,2013-01-12 13:51:00,
2013-01-12 09:05:00,63.6,63.0,30.06,SE,146,0.0,0.0,97,0.00,,,0.04,weatherlink.com 1.10,2013-01-12 14:05:00,
2013-01-12 09:20:00,64.1,64.0,30.06,SE,146,0.0,0.0,98,0.00,,,0.04,weatherlink.com 1.10,2013-01-12 14:20:00,
2013-01-12 09:36:00,64.7,64.0,30.06,SE,146,0.0,2.0,98,0.00,,,0.04,weatherlink.com 1.10,2013-01-12 14:36:00,
2013-01-12 09:51:00,65.0,64.0,30.06,SE,144,0.0,3.0,97,0.00,,,0.04,weatherlink.com 1.10,2013-01-12 14:51:00,
2013-01-12 10:06:00,65.0,64.0,30.06,SE,144,0.0,5.0,97,0.00,,,0.04,weatherlink.com 1.10,2013-01-12 15:06:00,
2013-01-12 10:21:00,65.2,64.0,30.06,SSE,157,1.0,4.0,96,0.01,,,0.05,weatherlink.com 1.10,2013-01-12 15:21:00,
2013-01-12 10:51:00,65.4,64.0,30.06,SSE,153,3.0,5.0,95,0.01,,,0.05,weatherlink.com 1.10,2013-01-12 15:51:00,
2013-01-12 11:08:00,65.6,64.0,30.05,SE,129,2.0,6.0,95,0.01,,,0.05,weatherlink.com 1.10,2013-01-12 16:08:00,
2013-01-12 11:21:00,66.2,65.0,30.05,SSE,156,3.0,3.0,95,0.00,,,0.05,weatherlink.com 1.10,2013-01-12 16:21:00,
2013-01-12 11:36:00,66.5,65.0,30.04,ESE,110,0.0,4.0,94,0.00,,,0.05,weatherlink.com 1.10,2013-01-12 16:36:00,
2013-01-12 11:51:00,66.8,65.0,30.03,SSE,157,3.0,4.0,94,0.00,,,0.05,weatherlink.com 1.10,2013-01-12 16:51:00,
2013-01-12 12:06:00,67.3,65.0,30.02,SE,129,2.0,5.0,93,0.00,,,0.05,weatherlink.com 1.10,2013-01-12 17:06:00,
2013-01-12 12:21:00,67.6,66.0,30.02,SE,141,0.0,2.0,93,0.00,,,0.05,weatherlink.com 1.10,2013-01-12 17:21:00,
2013-01-12 12:36:00,68.3,66.0,30.02,North,10,1.0,3.0,92,0.00,,,0.05,weatherlink.com 1.10,2013-01-12 17:36:00,
2013-01-12 13:06:00,68.6,66.0,30.01,SE,139,0.0,1.0,91,0.00,,,0.05,weatherlink.com 1.10,2013-01-12 18:06:00,
2013-01-12 13:21:00,68.5,66.0,30.01,ESE,119,0.0,3.0,90,0.00,,,0.05,weatherlink.com 1.10,2013-01-12 18:21:00,
2013-01-12 13:36:00,68.9,66.0,30.00,ESE,121,0.0,2.0,90,0.00,,,0.05,weatherlink.com 1.10,2013-01-12 18:36:00,
2013-01-12 13:51:00,70.2,67.0,30.00,SE,146,0.0,3.0,88,0.00,,,0.05,weatherlink.com 1.10,2013-01-12 18:51:00,
2013-01-12 14:06:00,70.3,66.0,29.99,WSW,257,0.0,1.0,87,0.00,,,0.05,weatherlink.com 1.10,2013-01-12 19:06:00,
2013-01-12 14:21:00,70.2,66.0,29.99,SE,137,0.0,4.0,87,0.00,,,0.05,weatherlink.com 1.10,2013-01-12 19:21:00,
2013-01-12 14:36:00,70.7,66.0,29.98,SE,134,1.0,1.0,86,0.00,,,0.05,weatherlink.com 1.10,2013-01-12 19:36:00,
2013-01-12 14:51:00,71.5,67.0,29.98,SE,143,0.0,4.0,84,0.00,,,0.05,weatherlink.com 1.10,2013-01-12 19:51:00,
2013-01-12 15:06:00,71.7,66.0,29.98,SE,131,1.0,3.0,82,0.00,,,0.05,weatherlink.com 1.10,2013-01-12 20:06:00,
2013-01-12 15:21:00,71.0,65.0,29.98,SE,133,0.0,3.0,82,0.00,,,0.05,weatherlink.com 1.10,2013-01-12 20:21:00,
2013-01-12 15:36:00,70.5,65.0,29.98,SE,128,0.0,3.0,82,0.00,,,0.05,weatherlink.com 1.10,2013-01-12 20:36:00,
2013-01-12 15:51:00,70.1,64.0,29.97,ESE,114,2.0,4.0,81,0.00,,,0.05,weatherlink.com 1.10,2013-01-12 20:51:00,
2013-01-12 16:06:00,70.3,64.0,29.97,SSE,153,0.0,4.0,81,0.00,,,0.05,weatherlink.com 1.10,2013-01-12 21:06:00,
2013-01-12 16:21:00,70.5,64.0,29.97,NE,42,0.0,4.0,81,0.00,,,0.05,weatherlink.com 1.10,2013-01-12 21:21:00,
2013-01-12 16:36:00,70.2,65.0,29.97,East,94,0.0,2.0,82,0.00,,,0.05,weatherlink.com 1.10,2013-01-12 21:36:00,
2013-01-12 16:51:00,69.9,64.0,29.97,SSW,192,0.0,3.0,82,0.00,,,0.05,weatherlink.com 1.10,2013-01-12 21:51:00,
2013-01-12 17:06:00,69.7,64.0,29.97,SSE,155,0.0,2.0,82,0.00,,,0.05,weatherlink.com 1.10,2013-01-12 22:06:00,
2013-01-12 17:36:00,69.2,64.0,29.97,SSE,153,0.0,2.0,82,0.00,,,0.05,weatherlink.com 1.10,2013-01-12 22:36:00,
2013-01-12 17:51:00,68.8,64.0,29.96,SSE,153,0.0,0.0,83,0.00,,,0.05,weatherlink.com 1.10,2013-01-12 22:51:00,
2013-01-12 18:21:00,68.3,63.0,29.96,SE,138,0.0,3.0,84,0.00,,,0.05,weatherlink.com 1.10,2013-01-12 23:21:00,
2013-01-12 18:36:00,68.2,63.0,29.96,SE,138,0.0,1.0,84,0.00,,,0.05,weatherlink.com 1.10,2013-01-12 23:36:00,
2013-01-12 18:51:00,68.4,63.0,29.96,SE,134,0.0,2.0,83,0.00,,,0.05,weatherlink.com 1.10,2013-01-12 23:51:00,
2013-01-12 19:06:00,68.4,63.0,29.95,SSE,161,3.0,4.0,83,0.00,,,0.05,weatherlink.com 1.10,2013-01-13 00:06:00,
2013-01-12 19:21:00,68.4,63.0,29.95,SSE,157,0.0,2.0,82,0.00,,,0.05,weatherlink.com 1.10,2013-01-13 00:21:00,
2013-01-12 19:36:00,68.3,63.0,29.95,SSE,157,0.0,1.0,82,0.00,,,0.05,weatherlink.com 1.10,2013-01-13 00:36:00,
2013-01-12 19:51:00,68.2,63.0,29.96,SSE,152,0.0,2.0,82,0.00,,,0.05,weatherlink.com 1.10,2013-01-13 00:51:00,
2013-01-12 20:06:00,67.9,62.0,29.96,SSE,152,0.0,1.0,82,0.00,,,0.05,weatherlink.com 1.10,2013-01-13 01:06:00,
2013-01-12 20:21:00,67.3,62.0,29.95,NE,56,0.0,2.0,83,0.00,,,0.05,weatherlink.com 1.10,2013-01-13 01:21:00,
2013-01-12 20:36:00,67.2,62.0,29.95,ESE,110,0.0,5.0,83,0.00,,,0.05,weatherlink.com 1.10,2013-01-13 01:36:00,
2013-01-12 20:51:00,67.2,62.0,29.95,ESE,105,0.0,1.0,83,0.00,,,0.05,weatherlink.com 1.10,2013-01-13 01:51:00,
2013-01-12 21:06:00,66.9,62.0,29.94,ESE,105,0.0,1.0,84,0.00,,,0.05,weatherlink.com 1.10,2013-01-13 02:06:00,
2013-01-12 21:21:00,66.3,62.0,29.94,ESE,105,0.0,0.0,85,0.00,,,0.05,weatherlink.com 1.10,2013-01-13 02:21:00,
2013-01-12 21:36:00,65.9,61.0,29.95,East,95,0.0,2.0,85,0.00,,,0.05,weatherlink.com 1.10,2013-01-13 02:36:00,
2013-01-12 21:51:00,65.5,61.0,29.95,East,96,0.0,0.0,86,0.00,,,0.05,weatherlink.com 1.10,2013-01-13 02:51:00,
2013-01-12 22:07:00,64.7,61.0,29.95,East,96,0.0,0.0,88,0.00,,,0.05,weatherlink.com 1.10,2013-01-13 03:07:00,
2013-01-12 22:22:00,64.0,61.0,29.95,East,96,0.0,0.0,89,0.00,,,0.05,weatherlink.com 1.10,2013-01-13 03:22:00,
2013-01-12 22:37:00,63.8,61.0,29.95,East,95,0.0,0.0,90,0.00,,,0.05,weatherlink.com 1.10,2013-01-13 03:37:00,
2013-01-12 22:52:00,64.1,61.0,29.95,East,96,0.0,1.0,89,0.00,,,0.05,weatherlink.com 1.10,2013-01-13 03:52:00,
2013-01-12 23:07:00,64.9,61.0,29.94,East,96,0.0,1.0,86,0.00,,,0.05,weatherlink.com 1.10,2013-01-13 04:07:00,
2013-01-12 23:22:00,65.2,61.0,29.93,East,96,0.0,2.0,85,0.00,,,0.05,weatherlink.com 1.10,2013-01-13 04:22:00,
2013-01-12 23:37:00,65.3,60.0,29.93,ESE,113,0.0,3.0,84,0.00,,,0.05,weatherlink.com 1.10,2013-01-13 04:37:00,
2013-01-12 23:52:00,64.9,60.0,29.93,ESE,113,0.0,0.0,85,0.00,,,0.05,weatherlink.com 1.10,2013-01-13 04:52:00,